Regional Weather Roundup
Issued by NWS

Home | Current Version | Previous Version | Graphics & Text | Print | Product List | Glossary On
Versions: 1 2 3 4 5 6 7 8 9 10 11 12 13 14 15 16 17 18 19 20 21 22 23 24 25 26 27 28 29 30 31 32 33 34 35 36 37 38 39 40 41 42 43 44 45 46 47 48 49 50
000
ASUS43 KIND 190159
RWRIN

WEATHER ROUNDUP FOR INDIANA
NATIONAL WEATHER SERVICE INDIANAPOLIS IN
1000 PM EDT MON SEP 18 2017

NOTE: "FAIR" INDICATES FEW OR NO CLOUDS BELOW 12,000 FEET WITH NO
SIGNIFICANT WEATHER AND/OR OBSTRUCTIONS TO VISIBILITY.

* - STATION DOES NOT REPORT WEATHER SUCH AS PRECIPITATION OR FOG.

+ - STATION NOT QUALITY CONTROLLED BY THE NATIONAL WEATHER SERVICE.
    USE DATA WITH CAUTION...ESPECIALLY DEWPOINT AND RELATIVE
    HUMIDITY OBSERVATIONS.

INZ001>003-010>013-019-020-190300-
NORTHWEST INDIANA

CITY           SKY/WX    TMP DP  RH WIND       PRES   REMARKS
GARY /AIRPORT/ CLOUDY    68  59  73 NE5       30.02S

$$

LMZ046-743>745-190300-
SOUTHERN LAKE MICHIGAN

STATION/POSITION TIME  TEMP    WIND        PRES    WAVE
                       AIR SEA DIR/SP/G            HT
                 (UTC) (F)     (DEG/KT/KT) (MB)    (FT)
BURNS HARBOR     0140   68      50/ 11/ 13 1016.6S
MICHIGAN CITY    0130   67      30/ 13/ 15   N/A
5NW MICH CITY    0150   67 68   60/ 10/ 14   N/A     2

$$

INZ004-005-014>016-021>024-190300-
NORTH CENTRAL INDIANA

CITY           SKY/WX    TMP DP  RH WIND       PRES   REMARKS
GOSHEN         CLOUDY    67  54  63 E7        30.02R
SOUTH BEND     CLOUDY    68  61  78 CALM      30.02R

$$

INZ006>009-017-018-025>027-190300-
NORTHEAST INDIANA

CITY           SKY/WX    TMP DP  RH WIND       PRES   REMARKS
FORT WAYNE     MOCLDY    67  62  84 E5        30.03R
KENDALLVILLE + CLEAR     64  60  87 NE6       30.03F

$$

INZ028-029-035-036-043>045-051>053-190300-
WEST CENTRAL INDIANA

CITY           SKY/WX    TMP DP  RH WIND       PRES   REMARKS
LAFAYETTE      MOCLDY    70  68  93 E6        29.97F
TERRE HAUTE    CLOUDY    74  68  81 S8        29.98R

$$

INZ030>032-037>040-046>048-054>057-064-065-190300-
CENTRAL INDIANA

CITY           SKY/WX    TMP DP  RH WIND       PRES   REMARKS
COLUMBUS       CLEAR     72  66  83 CALM      30.00S
INDIANAPOLIS   CLOUDY    70  68  93 N3        29.99F
-EAGLE CREEK   RAIN      70  67  90 CALM      29.99F
KOKOMO +       CLOUDY    71  67  87 E5        30.01F
MT COMFORT *+    N/A    N/A N/A N/A MISG        N/A
SHELBYVILLE    CLOUDY    71  66  84 E5        30.00S

$$

INZ033-034-041-042-049-050-058-059-190300-
EAST CENTRAL INDIANA

CITY           SKY/WX    TMP DP  RH WIND       PRES   REMARKS
MUNCIE         CLOUDY    74  67  78 SE6       30.03R
RICHMOND +     CLOUDY    68  68 100 CALM      30.05S FOG

$$

INZ060-061-067>069-081>083-085>088-190300-
SOUTHWEST INDIANA

CITY           SKY/WX    TMP DP  RH WIND       PRES   REMARKS
EVANSVILLE     MOCLDY    70  68  93 CALM      29.98F
HUNTINGBURG +    N/A    N/A N/A N/A MISG        N/A

$$

INZ062-063-066-070>080-084-089>092-190300-
SOUTH CENTRAL AND SOUTHEAST INDIANA

CITY           SKY/WX    TMP DP  RH WIND       PRES   REMARKS
BLOOMINGTON    CLOUDY    72  68  87 CALM      29.99F
MADISON *+     PTCLDY    68  64  88 CALM      30.03S
SEYMOUR +      CLOUDY    70  68  94 CALM      30.00S

$$





USA.gov is the U.S. government's official web portal to all federal, state and local government web resources and services.